User: anonymous
Location: Unspecified
(0.0000°N, 0.0000°E)
Time: 11:46:33
(UTC+02:00)
Language:

Cosmos 1437 - Orbit

View from above orbital plane
View from above orbital plane
View from above satellite
View from above satellite

Ground track
Ground track

The orbit data is extracted from the following two-line orbital elements,

1 13770U 83003A   14292.42720237  .00013085  00000-0  40944-3 0  6838
2 13770 081.1642 247.9952 0012156 059.3845 078.5076 15.32934114736595
Epoch (UTC): 19 October 2014 10:15:10
Eccentricity: 0.0012156
inclination: 81.1642°
perigee height: 459 km
apogee height: 475 km
right ascension of ascending node: 247.9952°
argument of perigee: 59.3845°
revolutions per day: 15.32934114
mean anomaly at epoch: 78.5076°
orbit number at epoch: 73659

The dashed part of the orbit path shows where the satellite is in the earth's shadow,  

DLR